Location: Temple Hill
(37.3073°N, 88.6303°W)
Time: 17:29:00
(UTC+00:00)

USA 215 - Pass Details

Date: 23 November 2020
Orbit: 1098 x 1110 km, 123.0° (Epoch: 14 January)

Event Time Altitude Azimuth Distance (km) Brightness Sun altitude
Exits shadow 22:54:19 - 45° (NE) 3,804 5.5 -3.5°
Reaches altitude 10° 22:56:28 10° 46° (NE) 2,975 5.0 -3.9°
Maximum altitude 23:03:04 84° 134° (SE) 1,118 3.4 -5.2°
Drops below altitude 10° 23:09:39 10° 223° (SW) 2,964 6.7 -6.4°
Sets 23:12:07 0° 224° (SW) 3,920 7.5 -6.8°
